Location: Amber Place
(27.9751°N, 82.3711°W)
Time: 17:12:13
(UTC+00:00)

N. Korean satellite - Pass Details

Date: 04 October 2021
Orbit: 450 x 495 km, 97.3° (Epoch: 15 October)

Event Time Altitude Azimuth Distance (km) Brightness Sun altitude
Rises 10:20:39 0° 18° (NNE) 2,561 10.5 -14.8°
Reaches altitude 10° 10:22:46 10° 24° (NNE) 1,683 9.6 -14.3°
Maximum altitude 10:26:17 49° 99° (E) 645 7.6 -13.6°
Drops below altitude 10° 10:29:49 10° 175° (S) 1,685 9.3 -12.8°
Sets 10:31:56 0° 181° (S) 2,564 10.2 -12.3°
